Total_Precipitation_Accumulation
0.00 0.00 0.01 0.01 0.01 0.00 0.01 0.02 0.02 0.02 0.02 0.02 0.01 0.01 0.01 0.00 0.01 0.01 0.01 0.01 0.01 0.01 0.01 0.01 0.01 0.01 0.02 0.02 0.02 0.02 0.02 0.01 0.01 0.02 0.03 0.05 0.07 0.10 0.14 0.19 0.31 0.34 0.25
0.00 0.00 0.01 0.01 0.01 0.00 0.01 0.01 0.02 0.02 0.02 0.01 0.01 0.01 0.01 0.00 0.00 0.01 0.01 0.01 0.01 0.01 0.01 0.01 0.01 0.01 0.01 0.01 0.01 0.01 0.01 0.01 0.02 0.04 0.05 0.07 0.12 0.16 0.15 0.17 0.27 0.24 0.16
0.00 0.00 0.01 0.01 0.01 0.00 0.00 0.01 0.01 0.01 0.01 0.01 0.01 0.01 0.00 0.00 0.00 0.00 0.01 0.01 0.01 0.01 0.02 0.01 0.01 0.01 0.01 0.01 0.01 0.01 0.01 0.01 0.03 0.04 0.09 0.12 0.11 0.18 0.15 0.16 0.16 0.12 0.10
0.00 0.00 0.01 0.01 0.01 0.01 0.00 0.01 0.01 0.01 0.01 0.01 0.01 0.01 0.01 0.00 0.01 0.01 0.01 0.01 0.02 0.02 0.03 0.02 0.01 0.01 0.01 0.00 0.00 0.00 0.01 0.01 0.03 0.05 0.19 0.21 0.10 0.12 0.10 0.10 0.10 0.06 0.06
0.00 0.00 0.01 0.01 0.01 0.01 0.01 0.01 0.01 0.01 0.01 0.01 0.01 0.01 0.01 0.01 0.01 0.01 0.02 0.02 0.02 0.03 0.03 0.03 0.02 0.01 0.00 0.00 0.00 0.01 0.01 0.01 0.03 0.05 0.11 0.18 0.23 0.15 0.11 0.08 0.08 0.07 0.06
0.00 0.00 0.01 0.01 0.01 0.01 0.01 0.01 0.02 0.02 0.02 0.02 0.01 0.01 0.01 0.02 0.02 0.02 0.02 0.02 0.03 0.04 0.04 0.03 0.02 0.01 0.01 0.01 0.01 0.01 0.01 0.01 0.03 0.05 0.07 0.12 0.25 0.21 0.19 0.14 0.09 0.07 0.05
0.00 0.00 0.01 0.02 0.01 0.01 0.01 0.01 0.01 0.02 0.02 0.02 0.02 0.02 0.02 0.02 0.03 0.03 0.03 0.03 0.04 0.04 0.04 0.03 0.02 0.02 0.01 0.01 0.01 0.01 0.02 0.02 0.05 0.10 0.11 0.16 0.30 0.29 0.45 0.48 0.31 0.18 0.07
0.00 0.00 0.01 0.02 0.02 0.02 0.02 0.02 0.02 0.02 0.03 0.02 0.03 0.02 0.03 0.03 0.04 0.04 0.05 0.04 0.05 0.05 0.06 0.05 0.03 0.03 0.02 0.02 0.02 0.04 0.07 0.07 0.08 0.12 0.16 0.24 0.27 0.32 0.67 0.79 0.62 0.47 0.29
0.01 0.01 0.01 0.02 0.03 0.03 0.03 0.03 0.03 0.03 0.04 0.04 0.04 0.04 0.04 0.03 0.04 0.05 0.06 0.07 0.08 0.09 0.09 0.09 0.07 0.06 0.05 0.05 0.07 0.11 0.13 0.12 0.11 0.14 0.13 0.22 0.24 0.35 0.77 0.83 0.65 0.54 0.41
0.02 0.02 0.02 0.03 0.04 0.05 0.05 0.04 0.04 0.05 0.05 0.05 0.05 0.06 0.06 0.06 0.07 0.09 0.09 0.08 0.11 0.13 0.14 0.13 0.14 0.14 0.13 0.12 0.13 0.13 0.12 0.07 0.09 0.11 0.10 0.13 0.22 0.48 0.82 0.88 0.81 0.71 0.53
0.05 0.03 0.03 0.04 0.06 0.06 0.05 0.06 0.08 0.09 0.09 0.08 0.09 0.09 0.10 0.11 0.13 0.15 0.15 0.18 0.20 0.23 0.26 0.27 0.29 0.32 0.32 0.27 0.25 0.23 0.17 0.14 0.18 0.08 0.08 0.10 0.25 0.56 0.78 0.92 0.92 0.85 0.74
0.07 0.05 0.05 0.07 0.08 0.08 0.08 0.11 0.18 0.19 0.23 0.21 0.20 0.23 0.24 0.26 0.22 0.17 0.23 0.36 0.46 0.59 0.60 0.60 0.71 0.71 0.56 0.38 0.44 0.63 0.30 0.23 0.19 0.12 0.16 0.16 0.29 0.52 0.77 0.90 0.84 0.81 0.78
0.08 0.08 0.10 0.13 0.13 0.15 0.15 0.17 0.24 0.32 0.47 0.50 0.50 0.58 0.58 0.57 0.43 0.34 0.39 0.53 0.66 0.84 0.83 1.00 1.24 0.99 0.86 0.79 0.79 0.77 0.50 0.41 0.28 0.24 0.25 0.33 0.46 0.67 0.84 0.90 0.91 0.88 0.83
0.19 0.18 0.21 0.27 0.29 0.30 0.36 0.37 0.38 0.41 0.49 0.56 0.61 0.71 0.87 0.85 0.78 0.72 0.67 0.67 0.78 0.91 1.11 1.24 1.32 1.36 1.39 1.17 1.04 0.93 0.81 0.69 0.50 0.46 0.48 0.55 0.70 0.88 1.01 0.95 0.95 0.92 0.90
0.37 0.46 0.54 0.57 0.55 0.58 0.63 0.60 0.51 0.50 0.49 0.53 0.69 0.83 1.05 1.13 1.14 1.16 1.05 1.02 0.92 1.07 1.33 1.53 1.47 1.61 1.72 1.56 1.31 1.15 1.04 0.88 0.73 0.63 0.62 0.74 0.74 0.79 0.95 1.01 1.03 1.00 0.98
0.60 0.80 0.85 0.86 0.90 0.90 0.89 0.85 0.76 0.69 0.68 0.71 0.86 1.01 1.31 1.41 1.44 1.49 1.38 1.26 1.02 1.10 1.31 1.56 1.60 1.75 1.74 1.73 1.37 1.24 1.10 1.05 0.92 0.83 0.78 0.86 0.87 0.79 0.80 0.91 1.01 1.08 1.11
0.83 1.00 1.09 1.17 1.31 1.41 1.37 1.19 1.03 0.90 0.89 1.00 1.21 1.40 1.62 1.75 1.79 1.82 1.64 1.38 1.26 1.43 1.52 1.53 1.58 1.93 1.77 1.61 1.38 1.43 1.37 1.26 1.08 0.97 0.95 0.91 0.77 0.73 0.71 0.73 0.85 0.99 1.16
1.08 1.24 1.41 1.59 1.79 1.90 1.76 1.56 1.47 1.40 1.43 1.41 1.48 1.63 1.69 1.77 1.84 1.98 1.67 1.37 1.53 1.72 1.67 1.59 1.63 1.84 1.83 1.88 1.74 1.61 1.49 1.34 1.04 0.94 0.91 0.81 0.75 0.57 0.60 0.72 0.80 0.88 1.16
1.49 1.71 1.94 2.22 2.36 2.20 2.00 1.84 1.77 1.70 1.60 1.42 1.27 1.24 1.22 1.23 1.29 1.34 1.03 0.97 1.25 1.33 1.21 1.18 1.43 1.57 1.57 1.70 1.70 1.44 1.23 1.05 0.88 0.82 0.80 0.63 0.65 0.61 0.55 0.66 0.75 0.82 1.11
1.81 2.31 2.73 2.78 2.45 2.14 1.89 1.68 1.58 1.44 1.34 1.21 1.03 0.93 0.84 0.82 0.85 0.89 0.72 0.72 0.99 1.04 0.96 1.08 1.18 1.23 1.17 1.24 1.16 0.91 0.87 0.75 0.74 0.70 0.58 0.55 0.53 0.49 0.52 0.59 0.70 0.64 0.91
2.33 3.00 3.21 2.81 2.38 1.98 1.69 1.43 1.18 0.98 0.92 0.87 0.74 0.69 0.69 0.71 0.74 0.83 0.72 0.80 0.95 0.94 0.92 0.97 1.03 0.96 0.80 0.98 1.03 0.75 0.60 0.56 0.57 0.52 0.48 0.46 0.39 0.38 0.46 0.56 0.65 0.69 0.59
2.24 2.70 2.69 2.25 1.80 1.32 1.03 0.93 0.82 0.69 0.60 0.51 0.48 0.51 0.49 0.55 0.63 0.72 0.66 0.58 0.63 0.65 0.60 0.65 0.81 0.83 0.73 0.87 0.95 0.82 0.58 0.53 0.48 0.36 0.38 0.37 0.34 0.41 0.50 0.53 0.64 0.77 0.77
2.05 1.95 1.78 1.35 0.88 0.65 0.49 0.47 0.42 0.41 0.40 0.33 0.29 0.32 0.32 0.35 0.39 0.46 0.49 0.50 0.55 0.62 0.60 0.60 0.65 0.68 0.62 0.64 0.78 0.89 0.68 0.46 0.39 0.36 0.35 0.32 0.36 0.47 0.56 0.65 0.69 0.70 0.76
1.52 1.17 0.89 0.69 0.45 0.32 0.29 0.32 0.33 0.30 0.30 0.26 0.23 0.25 0.23 0.24 0.27 0.30 0.33 0.34 0.41 0.52 0.58 0.54 0.54 0.57 0.56 0.49 0.55 0.64 0.65 0.60 0.52 0.40 0.38 0.39 0.42 0.51 0.66 0.75 0.82 0.78 0.76
0.84 0.68 0.54 0.46 0.36 0.34 0.35 0.38 0.39 0.28 0.23 0.21 0.20 0.20 0.20 0.23 0.26 0.27 0.28 0.28 0.31 0.35 0.39 0.42 0.49 0.52 0.54 0.49 0.48 0.55 0.62 0.65 0.64 0.56 0.45 0.43 0.41 0.38 0.52 0.70 0.82 0.84 0.77
0.34 0.35 0.36 0.40 0.45 0.42 0.35 0.31 0.31 0.27 0.23 0.20 0.18 0.18 0.19 0.22 0.26 0.29 0.30 0.30 0.32 0.33 0.34 0.36 0.39 0.43 0.49 0.53 0.52 0.56 0.65 0.69 0.65 0.64 0.56 0.49 0.45 0.41 0.46 0.63 0.86 0.97 0.92